La Barousse Balès - 07/08/2011

Cyclosportive 152 Km


Pl Do. Nom - Surname Prénom - Name S-Cat /cat Club - Team TEMPS - Time Km/h /sx
1 108 DUMONT MATHIEU MB 1 FC ORLONAIS 04:49:38 32,7 1
2 7 GOUDIN JEAN-MARC MC 1 NL 04:49:40 32,7 2
3 83 MORAN CLEMENT MA 1 VC CHALLANDAIS 05:05:49 31,0 3
4 88 TINE CYRIL MB 2 LUCHON LOURON CYCLISME 05:05:49 31,0 4
5 41 CASTERAN DAMIEN MA 2 TEAM CYCLISTE MARTRAIS 05:05:49 31,0 5
6 54 HIDALGO JEAN-PHILIPPE MC 2 CC RIVESALTES 05:05:49 31,0 6
7 153 BRUGUIERE FRANCK MA 3 GPCC 05:05:50 31,0 7
8 113 HEMART GUILLAUME MA 4 LONGAGES ESPOIR CYCLISTE 05:05:50 31,0 8
9 147 TORRES FRANCOIS MC 3 UVA AUCH GERS 05:05:51 31,0 9
10 140 MONDON THOMAS MB 3 NL 05:15:51 30,0 10
11 84 MORAN DENIS MC 4 VC CHALLANDAIS 05:17:07 29,9 11
12 71 BOUCHOT JEROME MB 4 UVA AUCH GERS 05:17:08 29,9 12
13 107 FRICKER DANIEL MC 5 VC S ALTKIRCH 05:17:10 29,9 13
14 53 BATTOUE CLAUDE MA 5 VC LAVEDAN 05:18:34 29,8 14
15 145 BOYRIE JEAN PIERRE MC 6 UV LOURDES 05:18:35 29,8 15
16 82 CORBIERE REMI MA 6 VELO CLUB MAUREPAS 05:18:35 29,8 16
17 19 CALVARIN PHILIPPE MC 7 TEAM CAP TRIATHLON 05:18:36 29,8 17
18 87 ANCAUSSE CYRIL MA 7 VELO SPORT VALLETAIS 05:18:37 29,8 18
19 78 CHIPON BENJAMIN MA 8 NL 05:18:41 29,7 19
20 9 GUILLUY BERNARD MA 9 GUIDON VERDUNOIS 05:26:12 29,1 20
21 148 DINNET THOMAS MA 10 UFOLEP 05:26:12 29,1 21
22 119 FONTELLES XAVIER MB 5 FCC ESPAGNE 05:26:13 29,1 22
23 95 MASSOUBRE JEAN-CHRISTOPHE MA 11 UC LAVEDAN 05:30:10 28,7 23
24 85 MAS GUY MD 1 EC CLERMONT-FERRAND 05:32:01 28,6 24
25 142 SAINT ONGE FRANCOIS MC 8 NL 05:32:21 28,5 25
26 128 DEWIT PERRY MC 9 NL 05:32:24 28,5 26
27 99 PEBAY SYLVAIN ME 1 BAGNERES DE LUCHON 05:32:26 28,5 27
28 67 BOURILLON FREDERIC MB 6 LE GUIDON BAYONNAIS 05:38:19 28,0 28
29 103 CLEMENT PHILIPPE MD 2 FoNTANIE CLEMESSY SPORTS 05:40:42 27,8 29
30 62 BRETHENOUX MICHEL MC 10 VELO CLUB JARNAC 05:40:44 27,8 30
31 114 QUINIO MICHEL MC 11 PC AGEN 05:40:44 27,8 31
32 50 MOURLEAU DIDIER MC 12 CYCLO CLUB LA JALLE 05:40:45 27,8 32
33 101 PAYNE STEVEN MB 7 NL 05:40:45 27,8 33
34 4 ROLLAND JEAN-MARC MD 3 CVC CARCASSONNE 05:40:46 27,8 34
35 146 BELLAN DIDIER MC 13 MCC 05:40:49 27,8 35
36 134 FOURCAUD ERIC MB 8 CYCLOCLUB TRIAIS 05:43:03 27,6 36
37 43 MANCA JEAN-PIERRE MD 4 AC AGOS VIDALOS 05:45:46 27,4 37
38 51 DURAND SIMON MB 9 AC BAGNERES BIGORRE 05:48:38 27,2 38
39 45 CHARLES EMMANUEL MC 14 NL 05:48:38 27,2 39
40 73 LATISNERES FREDERIC MB 10 CYCLO CLUB DES ANCLAVES 05:48:41 27,2 40
41 131 GIDDINGS PETER MA 12 PYRACTIF CC 05:50:33 27,0 41
42 93 VERBEKE KOEN MA 13 WIELERBOND VLAANDEREN 05:50:34 27,0 42
43 69 TEYSSIER LAURENT MC 15 AVC LAUZUNAIS 05:52:52 26,9 43
44 143 GIL GUY ME 2 AVENIR BIZANOS 05:53:30 26,8 44
45 35 DEBONNAIRE XAVIER MC 16 ESPOIR CYCLISTE WAMBRECHIES 05:53:32 26,8 45
46 72 BEDEL GERALD ME 3 PORTET CYCLO CLUB 05:53:33 26,8 46
47 65 VIALA THIERRY MD 5 CLUB TEAM RANDO ACTIFS 05:53:33 26,8 47
48 130 FAJOL JEROME MB 11 SaINT ASTIER 05:53:33 26,8 48
49 129 MACKAY BRUCE MD 6 NL 05:53:33 26,8 49
50 29 MAHY STEPHAN MB 12 NL 05:53:34 26,8 50
51 3 BILGER BRUNO MB 13 UC AUSCITAINE 05:54:17 26,8 51
52 74 LOPEZ FRANCIS MD 7 TCG LATRESNE 05:58:19 26,5 52
53 136 ROY STEPHANE MA 14 CYCLISME REGION POUSAUGES 05:58:22 26,5 53
54 36 CHARUEL PHILIPPE MC 17 CS VILLEDIEU 05:58:30 26,4 54
55 151 ROLDAN JAIME MC 18 NL 05:59:57 26,3 55
56 66 GUILHOT PAUL MD 8 MONTREJEAU CYCLO CLUB 05:59:57 26,3 56
57 149 VICINELLI PATRICE MC 19 NL 05:59:58 26,3 57
58 79 ESTAQUE LAURENT MB 14 CouSERAN CYCLISTE 06:02:04 26,2 58
59 5 RIO STEPHANE MB 15 NL 06:02:17 26,2 59
60 28 VIAND LAURENT MB 16 CC PYRENEEN 06:04:34 26,0 60
61 47 FOULOU DAVID MC 20 NL 06:04:35 26,0 61
62 77 MANSAS JEAN-LUC MC 21 BALMA OC 06:04:35 26,0 62
63 8 MORALES LORENZO MC 22 "FC OLORON," 06:04:37 26,0 63
64 16 DUMAS ROGER ME 4 CAVIGNAC CLUB NORD GIRONDE 06:04:37 26,0 64
65 60 CHELEUX ERIC MC 23 VC MAUVEZINOIS 06:05:51 25,9 65
66 46 ARBES EMILE ME 5 VC PIERREFITTE LUZ 06:05:52 25,9 66
67 121 FORTURATI VALENTIN MA 15 CYCLOCLUB MIRAMONTAIS 06:05:52 25,9 67
68 56 SAMAILLE BENOIR MD 9 ATHLETIC CLUB MARCQUOIS 06:09:37 25,6 68
69 144 SERE SERGE MD 10 NL 06:09:38 25,6 69
70 6 MALRIC FRANCK MC 24 USC COLOMIERS 06:09:38 25,6 70
71 70 DELIEGE LAURENT MC 25 VILLENEUVE CYCLISTE 06:09:40 25,6 71
72 21 LACOTE HERVE MD 11 PASS'CYCLOSPORTIVE 06:09:41 25,6 72
73 31 EVANS MALCOM ME 6 NL 06:09:43 25,6 73
74 57 SANSOULET SEBASTIEN MB 17 NL 06:09:44 25,6 74
75 112 JENKIN JOHN MB 18 BRITISH CYCLING FEDERATION 06:09:46 25,6 75
76 89 WAGNER LUDOVIC MA 16 NL 06:09:59 25,6 76
77 105 FOURNIER DOMINIQUE MD 12 BRAQUET SAINTONGEAIS 06:10:27 25,6 77
78 86 JACQUIN ALEXANDRE MB 19 VELO SPORT CASTRAIS 06:13:35 25,4 78
79 11 OLIVIER JEAN-PIERRE ME 7 CYCLO SPORT 06:15:23 25,3 79
80 100 LE MARCHAND JEAN-FRANÇOIS MB 20 CC LANGUEUX 06:15:33 25,2 80
81 109 BARBERE JEN-LUC MC 26 CYCLE POITEVIN 06:15:40 25,2 81
82 91 VINCENT BRAM MB 21 WIELERBOND VLAANDEREN 06:16:20 25,2 82
83 141 DASTUGUE JEAN PIERRE MC 27 CYCLO CLUB TRIAIS 06:16:20 25,2 83
84 92 VERBEKE POL MA 17 WIELERBOND VLAANDEREN 06:16:47 25,2 84
85 97 MOLES PASCAL MB 22 VC MAUVEZINOIS 06:17:35 25,1 85
86 40 BOUSQUIN LUC MC 28 TRIATHLE VANNES 06:17:35 25,1 86
87 39 LEPIGEON ERIC MB 23 CS VILLEDIEU 06:17:38 25,1 87
88 20 SANSOULET JEAN-PIERRE ME 8 NL 06:17:49 25,1 88
89 58 BERAUD PASCAL MD 13 AVENIR FONSORBAIS 06:20:46 24,9 89
90 115 DIRAT ROGER ME 9 AUTRE 06:20:47 24,9 90
91 14 ROLLIN JEAN-LOUIS MD 14 NL 06:27:36 24,5 91
92 15 CHOMBART JEAN-LOUIS MC 29 CLUB NEUTRE NORD PAS 06:27:38 24,5 92
93 118 GRASSAOD JOEL MD 15 VELO SPORT CASTRAIS 06:27:39 24,5 93
94 132 MILES ALEX MA 18 NL 06:27:39 24,5 94
95 68 GOMBE RENO MC 30 VELO CLUB JARNAC 06:27:41 24,5 95
96 63 BORDE ALAIN-JOSEPH ME 10 CYCLO CLUB PONTACQUAIS 06:27:54 24,4 96
97 76 MORIN PHILIPPE MC 31 NL 06:31:57 24,2 97
98 137 BOURASSEAU BENJAMIN MA 19 UC THOUARS 06:32:30 24,2 98
99 120 DUTOURON SERGE MD 16 ETOILE CYCLISTE MONTESQUIEU 06:35:09 24,0 99
100 1 BOUISSOU PATRICK MD 17 ECV DOURDOU 06:35:10 24,0 100
101 150 RAYSSIGUIER CYRIL MB 24 CYCLO CLUB AUSSONNAIS 06:35:12 24,0 101
102 64 GRANET FRANÇOIS MD 18 CERCLE AQUITAIN 06:36:13 23,9 102
103 27 DUCHIRON JEROME MB 25 VELO CLUB MONTMORILLONNAIS 06:36:16 23,9 103
104 26 WELLS ROBERT ME 11 NL 06:38:15 23,8 104
105 44 ARIGASCI JEAN-PASCAL MD 19 NL 06:40:30 23,7 105
106 126 DOUCEDE PATRICK MD 20 MCC 06:40:34 23,7 106
107 38 OZENNE MARC MD 21 CS VILLEDIEU 06:41:04 23,6 107
108 42 FLAUD JEAN-FRANÇOIS MC 32 AC RILHAC RANCON 06:41:12 23,6 108
109 110 CARASSUS BERNARD ME 12 CCM 06:42:53 23,5 109
110 25 MITCHELL JAN FW3 1 VELO CLUB MONTMORILLONNAIS 06:42:55 23,5 1
111 37 OZENNE ROLAND ME 13 CS VILLEDIEU 06:42:56 23,5 110
112 102 DUVERNEIX JEAN-LOUIS MD 22 UNION CYCLISTE DE FLAVIGNAC 06:42:57 23,5 111
113 90 MONTEILS PATRICE MD 23 ASSM CYCLOTOURISME ST-MEDARD EN JALLE 06:42:59 23,5 112
114 106 LABRUNEE GERARD ME 14 AC BAGNÈRES BIGORRE 06:52:52 23,0 113
115 117 BARBASTE PIERRE MC 33 NL 06:52:52 23,0 114
116 10 GATINE PASCAL MD 24 AS BRETONNIENE 06:57:34 22,7 115
117 133 MARCOS FEBAS MB 26 NL 06:57:39 22,7 116
118 139 CHAVENAUD YANNICK MC 34 UFOLEP 07:05:30 22,3 117
119 96 SOUQUIERES SOPHIE FW1 1 VC MAUVEZINOIS 07:05:31 22,3 2
120 81 HOURREGUE JEAN-MARC ME 15 CYCLO TOURISTE MONTECHOIS 07:05:47 22,3 118
121 116 CHAMPIRE CYRIL MB 27 FREE IRON TEAM 07:12:39 21,9 119
122 61 BERNARD JEAN-CLAUDE MD 25 GUIDON TARGONNAIS 07:13:59 21,8 120
123 123 BUCHAN AUSTAIR MC 35 NL 07:14:04 21,8 121
124 124 BUCHAN RHONA FW2 1 NL 07:14:05 21,8 3
125 18 PEREIRA ANTOINE MC 36 MONTREJEAU CYCLO CLUB 07:17:21 21,7 122
126 135 LAFORIE PATRICK MD 26 SaINT JEAN AOUT 07:17:22 21,7 123
127 138 BOUMDED ORON PIERRE MC 37 NL 07:17:38 21,7 124
128 127 HUGHE STEVE MC 38 NL 07:18:11 21,6 125
129 17 SERRA THIERRY MC 39 UNIVERS CYCLISTE 07:20:22 21,5 126
130 80 CARRASCO ANDRE-MICHEL MB 28 NL 07:26:36 21,2 127
131 122 DRUMOND ANDREW MB 29 NL 07:27:35 21,2 128
132 104 WESTERBEEK JOHA ME 16 CCB 07:27:35 21,2 129
133 48 LE GOC YVES MB 0 CC RIVESALTES 00:00:00 Abd Abd
134 98 AUTEM PHILIPPE MC 0 CC RIVESALTES 00:00:00 Abd Abd
135 152 TESSAROTTO GUY ME 0 CPRS PINS JUSTARET VILLATE 00:00:00 Abd Abd
136 30 DJEBLI ADAM MC 0 CYCLO CLUB CASTELNAUDARY 04:53:33 Abd Abd
137 125 YULE ANDREW MC 0 NL 05:25:57 Abd Abd